Regional Weather Roundup
Issued by NWS Northern Indiana

Home | Current Version | Previous Version | Text Only | Print | Product List | Glossary Off
Versions: 1 2 3 4 5 6 7 8 9 10 11 12 13 14 15 16 17 18 19 20 21 22 23 24 25 26 27 28 29 30 31 32 33 34 35 36 37 38 39 40 41 42 43 44 45 46 47 48 49 50

000
ASUS43 KIWX 290500
RWRIWX

KIWX WEATHER ROUNDUP
NATIONAL WEATHER SERVICE NORTHERN INDIANA
1200 AM EST MON DEC 29 2014

NOTE: "FAIR" INDICATES FEW OR NO CLOUDS BELOW 12,000 FEET WITH NO
SIGNIFICANT WEATHER AND/OR OBSTRUCTIONS TO VISIBILITY.

* THESE STATIONS ARE NOT UNDER NWS QUALITY CONTROL. THEY ALSO MAY NOT
  REPORT WEATHER SUCH AS PRECIPITATION OR FOG.

INZ001>027-290600-
NORTHERN INDIANA

CITY           SKY/WX    TMP DP  RH WIND       PRES   REMARKS
SOUTH BEND     PTCLDY    23  17  78 CALM      30.24R
GOSHEN         CLEAR     25  23  92 CALM      30.23R
ANGOLA*        CLEAR     25  19  80 NW3       30.20R
FORT WAYNE     PTCLDY    25  23  92 W5        30.24R WCI  19
PERU/GRISSOM   CLEAR     23  23 100 W1        30.23R

$$
INZ028>050-290600-
CENTRAL INDIANA

CITY           SKY/WX    TMP DP  RH WIND       PRES   REMARKS
LAFAYETTE      PTCLDY    20  19  96 CALM      30.24S FOG
KOKOMO*        CLEAR     25  21  86 CALM      30.23R
MUNCIE*        CLEAR     25  22  88 NW3       30.23R
INDIANAPOLIS   CLEAR     24  20  84 N3        30.22R

$$
MIZ043>046-050>051-056>058-064>065-071>073-077>080-290600-
SOUTHWEST LOWER MICHIGAN

CITY           SKY/WX    TMP DP  RH WIND       PRES   REMARKS
BATTLE CREEK   CLOUDY    31  20  63 N5        30.21R WCI  26
BENTON HARBOR  CLOUDY    27  23  85 CALM      30.23R
COLDWATER*     CLOUDY    25  22  89 CALM      30.21R
HILLSDALE*     CLEAR     25  21  85 NW6       30.19R WCI  18
HOLLAND        CLOUDY    32  22  66 NE5       30.23R WCI  27
GRAND RAPIDS   CLOUDY    29  19  66 NW7       30.22R WCI  22
KALAMAZOO      CLOUDY    29  21  72 W3        30.21S
STURGIS*       PTCLDY    25  19  80 CALM      30.21S
THREE RIVERS*  CLOUDY    27  23  84 CALM      30.23R

$$
OHZ001>008-015>018-024>025-290600-
NORTHWEST OHIO

CITY           SKY/WX    TMP DP  RH WIND       PRES   REMARKS
DEFIANCE       CLEAR     28  23  81 W3        30.23R
FINDLAY        CLEAR     27  24  89 W5        30.20R WCI  22
TOLEDO EXPRESS CLEAR     25  22  88 W3        30.21R
TOLEDO METCALF CLEAR     26  21  81 W6        30.22R WCI  19
LIMA           CLEAR     30  25  81 W7        30.21R HAZE    WCI  23

$$
AND FOR LAKE MICHIGAN COASTAL AND OPEN LAKE BUOY OBSERVATIONS

STATION/POSITION TEMP    WIND        PRES    VSBY  WAVE
                 AIR SEA DIR/SP/G                  HT/PER
                 (F)     (DEG/KT/KT) (MB)    (MI)  (FT/S)
CALUMET HARBOR    28     270/  4/  7 1022.9R
MICHIGAN CITY     31     210/ 10/ 11   N/A
SAINT JOSEPH      33     250/  1/  6 1023.4F

$$
&&



USA.gov is the U.S. government's official web portal to all federal, state and local government web resources and services.